Regional Weather Roundup
Issued by NWS

Home | Current Version | Previous Version | Graphics & Text | Print | Product List | Glossary On
Versions: 1 2 3 4 5 6 7 8 9 10 11 12 13 14 15 16 17 18 19 20 21 22 23 24 25 26 27 28 29 30 31 32 33 34 35 36 37 38 39 40 41 42 43 44 45 46 47 48 49 50
000
ASUS43 KLMK 221602
RWRKY
KENTUCKY REGIONAL WEATHER ROUNDUP
NATIONAL WEATHER SERVICE LOUISVILLE KY
1100 AM EST SUN JAN 22 2017

NOTE "FAIR" INDICATES FEW OR NO CLOUDS BELOW 12,000 FEET
WITH NO SIGNIFICANT WEATHER AND/OR OBSTRUCTIONS TO VISIBILITY.

KYZ001>023-026-027-061>063-070>075-221700-
WESTERN AND SOUTH CENTRAL KENTUCKY

CITY           SKY/WX    TMP DP  RH WIND       PRES   REMARKS
PADUCAH        MOSUNNY   57  51  80 E7        29.45R
HENDERSON      PTSUNNY   54  46  76 E7        29.47S
OWENSBORO      PTSUNNY   54  50  86 NE7       29.48F
HOPKINSVILLE   CLOUDY    56  54  92 NE3       29.44F
BOWLING GREEN  CLOUDY    57  51  80 E5        29.48F
GLASGOW        NOT AVBL
$$

KYZ024-025-028>034-038-045-046-053-221700-
NORTH CENTRAL KENTUCKY

CITY           SKY/WX    TMP DP  RH WIND       PRES   REMARKS
LOUISVILLE/SDF CLOUDY    54  49  83 NW5       29.50F
LOUISVILLE/LOU CLOUDY    55  50  83 W3        29.51F
FORT KNOX      CLOUDY    53  51  92 NE7       29.48F
$$

KYZ035>037-039>044-047>052-055>060-089>105-221700-
NORTHEAST KENTUCKY

CITY           SKY/WX    TMP DP  RH WIND       PRES   REMARKS
LEXINGTON      CLOUDY    54  50  86 NE8       29.51S
COVINGTON      CLOUDY    54  51  90 NE7       29.56S
FRANKFORT      CLOUDY    54  48  80 N7        29.50F
$$

KYZ054-064>069-076>088-106>120-221700-
SOUTHEAST KENTUCKY

CITY           SKY/WX    TMP DP  RH WIND       PRES   REMARKS
JACKSON        LGT RAIN  51  49  92 VRB3      29.52F
LONDON         LGT RAIN  53  49  86 SE6       29.50S
SOMERSET       LGT RAIN  52  52 100 CALM      29.52R
MIDDLESBORO    RAIN      52  52 100 S3        29.53R
MONTICELLO     LGT RAIN  54  51  90 NW7       29.51S
$$




USA.gov is the U.S. government's official web portal to all federal, state and local government web resources and services.